Regional Weather Roundup
Issued by NWS

Home | Current Version | Previous Version | Text Only | Print | Product List | Glossary On
Versions: 1 2 3 4 5 6 7 8 9 10 11 12 13 14 15 16 17 18 19 20 21 22 23 24 25 26 27 28 29 30 31 32 33 34 35 36 37 38 39 40 41 42 43 44 45 46 47 48 49 50
000
ASUS45 KCYS 270510
RWRWY

WYOMING REGIONAL WEATHER ROUNDUP
NATIONAL WEATHER SERVICE CHEYENNE WY
1100 PM MDT WED JUL 26 2017

NOTE:  "FAIR" INDICATES FEW OR NO CLOUDS BELOW 12,000 FEET
WITH NO SIGNIFICANT WEATHER AND/OR OBSTRUCTIONS TO VISIBILITY.

WYZ001-270600-
YELLOWSTONE NATIONAL PARK

CITY           SKY/WX    TMP DP  RH WIND       PRES   REMARKS
LK YELLOWSTONE   N/A     55  45  68 CALM      30.42R
W YELLOWSTONE  NOT AVBL

$$
WYZ002>013-054>058-071-098>099-270600-
NORTHERN WYOMING

CITY           SKY/WX    TMP DP  RH WIND       PRES   REMARKS
JACKSON        MOCLDY    63  55  77 CALM      30.29S
CODY           FAIR      71  47  42 CALM      30.18F
GREYBULL       FAIR      74  56  53 SE3       30.09R
WORLAND        CLOUDY    73  56  54 SE12      30.11S
SHERIDAN       FAIR      71  52  50 SE8       30.09S
BUFFALO        FAIR      69  50  50 SW24G33   30.19F
GILLETTE       FAIR      71  53  52 S13       30.17F
HULETT         FAIR      70  50  49 S6        30.20F
NEWCASTLE      FAIR      70  50  49 S10       30.22S

$$
WYZ014>020-022>026-101>103-270600-
CENTRAL WYOMING

CITY           SKY/WX    TMP DP  RH WIND       PRES   REMARKS
BIG PINEY      FAIR      58  50  75 N8        30.32F
PINEDALE       FAIR      59  45  58 NE3       30.34S
DUBOIS         FAIR      61  46  59 CALM      30.32F
LANDER         FAIR      67  52  58 NW6       30.21S
RIVERTON       FAIR      69  57  65 S5        30.21S
CASPER         CLOUDY    64  58  80 W8        30.24R
DOUGLAS        FAIR      68  57  68 SE5       30.24R

$$
WYZ021-027>030-104>119-270600-
SOUTHERN WYOMING

CITY           SKY/WX    TMP DP  RH WIND       PRES   REMARKS
EVANSTON       FAIR      65  52  62 NW5       30.35R
KEMMERER         N/A     61  50  67 CALM      30.36R
FORT BRIDGER   FAIR      65  53  65 SW3       30.36R
ROCK SPRINGS   CLOUDY    63  56  78 S6        30.31F
RAWLINS        MOCLDY    62  57  83 NE3       30.34S
LARAMIE        FAIR      58  55  90 S7        30.37F
CHEYENNE       MOCLDY    65  57  75 SE5       30.32F
TORRINGTON     FAIR      68  60  75 E7        30.20R
PINE BLUFFS    MOCLDY    66  55  68 CALM      30.28S

$$



USA.gov is the U.S. government's official web portal to all federal, state and local government web resources and services.